Location: Artiguedieu
(43.5000°N, 0.5454°E)
Time: 09:41:39
(UTC+00:00)

Explorer 7 - Pass Details

Date: 07 August 2021
Orbit: 484 x 676 km, 50.3° (Epoch: 22 September)

Event Time Altitude Azimuth Distance (km) Brightness Sun altitude
Rises 07:20:09 0° 299° (WNW) 2,604 9.8 24.9°
Reaches altitude 10° 07:22:20 10° 304° (NW) 1,740 9.0 25.3°
Maximum altitude 07:26:12 54° 22° (NNE) 653 7.8 26.0°
Drops below altitude 10° 07:30:18 10° 101° (E) 1,838 11.2 26.8°
Sets 07:32:39 0° 106° (ESE) 2,768 11.6 27.2°
